User: anonymous   Login
Location: Unspecified
(0.0000°N, 0.0000°E)
Time: 06:57:57
(UTC+00:00)
Language:

M-CUBED/EXP-1 PRIME - Orbit

View from above orbital plane
View from above orbital plane
View from above satellite
View from above satellite

Ground track
Ground track

The orbit data is extracted from the following two-line orbital elements,

1 37855U 11061F   17202.74253677 +.00001597 +00000-0 +91191-4 0  9997
2 37855 101.7117 091.7263 0180432 339.5648 019.8407 15.03163478311510
Epoch (UTC): 21 July 2017 17:49:15
Eccentricity: 0.0180432
inclination: 101.7117°
perigee height: 432 km
apogee height: 682 km
right ascension of ascending node: 91.7263°
argument of perigee: 339.5648°
revolutions per day: 15.03163478
mean anomaly at epoch: 19.8407°
orbit number at epoch: 31151

The dashed part of the orbit path shows where the satellite is in the earth's shadow,  

DLR